| time (UTC) | temp F | wind direction | speed knots | gust knots | rain 1hr in | rain 24hr in | rain mn in | humidity % | barometer mb |
| 20260510095018 | 50 | 206 | 0.0 | 0.0 | 0.00 | 0.00 | 0.00 | 96 | 1011.2 |
| 20260510094551 | 51 | 207 | 0.0 | 0.0 | 0.00 | 0.00 | 0.00 | 96 | 1011.3 |
| 20260510094034 | 51 | 207 | 0.0 | 0.0 | 0.00 | 0.00 | 0.00 | 96 | 1011.2 |
| 20260510093553 | 51 | 206 | 0.0 | 0.0 | 0.00 | 0.00 | 0.00 | 96 | 1011.3 |
| 20260510093037 | 51 | 206 | 0.0 | 0.0 | 0.00 | 0.00 | 0.00 | 96 | 1011.3 |
| 20260510092558 | 51 | 206 | 0.0 | 0.0 | 0.00 | 0.00 | 0.00 | 96 | 1011.3 |
| 20260510092037 | 51 | 206 | 0.0 | 0.0 | 0.00 | 0.00 | 0.00 | 96 | 1011.3 |
| 20260510091600 | 51 | 207 | 0.0 | 0.0 | 0.00 | 0.00 | 0.00 | 96 | 1011.3 |
| 20260510091039 | 51 | 242 | 0.0 | 0.0 | 0.00 | 0.00 | 0.00 | 96 | 1011.3 |
| 20260510090559 | 51 | 252 | 0.0 | 0.0 | 0.00 | 0.00 | 0.00 | 96 | 1011.2 |
| 20260510090501 | 51 | 252 | 0.0 | 0.0 | 0.00 | 0.00 | 0.00 | 96 | 1011.2 |
| 20260510090027 | 51 | 313 | 0.0 | 0.0 | 0.00 | 0.00 | 0.00 | 96 | 1011.1 |
| 20260510085504 | 51 | 313 | 0.0 | 0.0 | 0.00 | 0.00 | 0.00 | 96 | 1011.1 |
| 20260510085044 | 50 | 314 | 0.0 | 0.0 | 0.00 | 0.00 | 0.00 | 96 | 1011.0 |
| 20260510084516 | 50 | 313 | 0.0 | 0.0 | 0.00 | 0.00 | 0.00 | 96 | 1011.0 |
| 20260510084049 | 50 | 314 | 0.0 | 0.0 | 0.00 | 0.00 | 0.00 | 96 | 1011.0 |
| 20260510083529 | 50 | 314 | 0.0 | 0.0 | 0.00 | 0.00 | 0.00 | 96 | 1011.0 |
| 20260510083047 | 50 | 314 | 0.0 | 0.0 | 0.00 | 0.00 | 0.00 | 96 | 1011.0 |
| 20260510082509 | 50 | 313 | 0.0 | 0.0 | 0.00 | 0.00 | 0.00 | 96 | 1011.1 |
| 20260510082045 | 50 | 314 | 0.0 | 0.0 | 0.00 | 0.00 | 0.00 | 96 | 1011.1 |
| 20260510081533 | 51 | 314 | 0.0 | 0.0 | 0.00 | 0.00 | 0.00 | 96 | 1010.9 |
| 20260510081048 | 51 | 313 | 0.0 | 0.0 | 0.00 | 0.00 | 0.00 | 96 | 1010.8 |
| 20260510080510 | 51 | 314 | 0.0 | 0.0 | 0.00 | 0.00 | 0.00 | 96 | 1010.8 |
| 20260510080034 | 51 | 314 | 0.0 | 0.0 | 0.00 | 0.00 | 0.00 | 96 | 1010.7 |
| 20260510075510 | 51 | 314 | 0.0 | 0.0 | 0.00 | 0.00 | 0.00 | 96 | 1010.6 |
| 20260510075032 | 51 | 314 | 0.0 | 0.0 | 0.00 | 0.00 | 0.00 | 96 | 1010.6 |
| 20260510074513 | 51 | 314 | 0.0 | 0.0 | 0.00 | 0.00 | 0.00 | 95 | 1010.4 |
| 20260510074037 | 51 | 314 | 0.0 | 0.0 | 0.00 | 0.00 | 0.00 | 95 | 1010.3 |
| 20260510073554 | 50 | 314 | 0.0 | 0.0 | 0.00 | 0.00 | 0.00 | 95 | 1010.3 |
| 20260510073051 | 50 | 313 | 0.0 | 0.0 | 0.00 | 0.00 | 0.00 | 95 | 1010.3 |
| 20260510072559 | 51 | 314 | 0.0 | 0.0 | 0.00 | 0.00 | 0.00 | 95 | 1010.3 |
| 20260510072502 | 51 | 313 | 0.0 | 0.0 | 0.00 | 0.00 | 0.00 | 95 | 1010.3 |
| 20260510072043 | 51 | 314 | 0.0 | 0.0 | 0.00 | 0.00 | 0.00 | 95 | 1010.2 |
| 20260510071559 | 51 | 314 | 0.0 | 0.0 | 0.00 | 0.00 | 0.00 | 95 | 1010.2 |
| 20260510071040 | 51 | 314 | 0.0 | 0.0 | 0.00 | 0.00 | 0.00 | 95 | 1010.1 |
| 20260510070520 | 51 | 314 | 0.0 | 0.0 | 0.00 | 0.00 | 0.00 | 95 | 1010.1 |
| 20260510070106 | 51 | 313 | 0.0 | 0.0 | 0.00 | 0.00 | 0.00 | 95 | 1010.2 |
| 20260510070003 | 51 | 314 | 0.0 | 0.0 | 0.00 | 0.00 | 0.00 | 95 | 1010.2 |
| 20260510065515 | 51 | 314 | 0.0 | 0.0 | 0.00 | 0.00 | 0.00 | 95 | 1010.1 |
| 20260510065034 | 51 | 314 | 0.0 | 0.0 | 0.00 | 0.00 | 0.00 | 95 | 1010.1 |
| 20260510064536 | 52 | 314 | 0.0 | 0.0 | 0.00 | 0.00 | 0.00 | 95 | 1010.0 |
| 20260510064038 | 51 | 313 | 0.0 | 0.0 | 0.00 | 0.00 | 0.00 | 95 | 1009.9 |
| 20260510063558 | 52 | 313 | 0.0 | 0.0 | 0.00 | 0.00 | 0.00 | 95 | 1009.8 |
| 20260510063041 | 52 | 314 | 0.0 | 0.0 | 0.00 | 0.00 | 0.00 | 95 | 1009.8 |
| 20260510062508 | 52 | 314 | 0.0 | 0.0 | 0.00 | 0.00 | 0.00 | 95 | 1009.9 |
| 20260510062044 | 52 | 313 | 0.0 | 0.0 | 0.00 | 0.00 | 0.00 | 94 | 1009.8 |
| 20260510061511 | 52 | 314 | 0.0 | 0.0 | 0.00 | 0.00 | 0.00 | 94 | 1009.9 |
| 20260510061051 | 52 | 313 | 0.0 | 0.0 | 0.00 | 0.00 | 0.00 | 94 | 1009.9 |
| 20260510060511 | 52 | 314 | 0.0 | 0.0 | 0.00 | 0.00 | 0.00 | 94 | 1009.9 |
| 20260510060030 | 52 | 313 | 0.0 | 0.0 | 0.00 | 0.00 | 0.00 | 94 | 1009.8 |
| 20260510055508 | 52 | 314 | 0.0 | 0.0 | 0.00 | 0.00 | 0.00 | 94 | 1009.9 |
| 20260510055034 | 53 | 314 | 0.0 | 0.0 | 0.00 | 0.00 | 0.00 | 94 | 1010.0 |
| 20260510054549 | 53 | 314 | 0.0 | 0.0 | 0.00 | 0.00 | 0.00 | 94 | 1010.0 |
| 20260510054033 | 53 | 313 | 0.0 | 0.0 | 0.00 | 0.00 | 0.00 | 94 | 1010.0 |
| 20260510053550 | 53 | 313 | 0.0 | 0.0 | 0.00 | 0.00 | 0.00 | 94 | 1010.1 |
| 20260510053043 | 53 | 313 | 0.0 | 0.0 | 0.00 | 0.00 | 0.00 | 94 | 1010.0 |
| 20260510052552 | 53 | 314 | 0.0 | 0.0 | 0.00 | 0.00 | 0.00 | 94 | 1010.1 |
| 20260510052032 | 53 | 313 | 0.0 | 0.0 | 0.00 | 0.00 | 0.00 | 94 | 1010.1 |
| 20260510051521 | 53 | 313 | 0.0 | 0.0 | 0.00 | 0.00 | 0.00 | 93 | 1010.1 |
| 20260510051054 | 54 | 314 | 0.0 | 0.0 | 0.00 | 0.00 | 0.00 | 93 | 1010.1 |
| 20260510050506 | 54 | 314 | 0.0 | 0.0 | 0.00 | 0.00 | 0.00 | 93 | 1010.1 |
| 20260510050028 | 54 | 314 | 0.0 | 0.0 | 0.00 | 0.00 | 0.00 | 93 | 1010.1 |
| 20260510045506 | 54 | 313 | 0.0 | 0.0 | 0.00 | 0.00 | 0.00 | 93 | 1010.1 |
| 20260510045031 | 54 | 313 | 0.0 | 0.0 | 0.00 | 0.00 | 0.00 | 93 | 1010.1 |
| 20260510044511 | 54 | 314 | 0.0 | 0.0 | 0.00 | 0.00 | 0.00 | 93 | 1010.1 |
| 20260510044032 | 54 | 314 | 0.0 | 0.0 | 0.00 | 0.00 | 0.00 | 93 | 1010.1 |
| 20260510043550 | 55 | 313 | 0.0 | 0.0 | 0.00 | 0.00 | 0.00 | 92 | 1010.1 |
| 20260510043036 | 55 | 314 | 0.0 | 0.0 | 0.00 | 0.00 | 0.00 | 93 | 1010.2 |
| 20260510042517 | 55 | 314 | 0.0 | 0.0 | 0.00 | 0.00 | 0.00 | 92 | 1010.2 |
| 20260510042034 | 55 | 314 | 0.0 | 0.0 | 0.00 | 0.00 | 0.00 | 92 | 1010.1 |
| 20260510041552 | 55 | 313 | 0.0 | 0.0 | 0.00 | 0.00 | 0.00 | 92 | 1010.1 |
| 20260510041034 | 56 | 313 | 0.0 | 0.0 | 0.00 | 0.00 | 0.00 | 92 | 1010.1 |
| 20260510040521 | 56 | 313 | 0.0 | 0.0 | 0.00 | 0.00 | 0.00 | 92 | 1010.1 |
| 20260510040049 | 56 | 313 | 0.0 | 0.0 | 0.00 | 0.00 | 0.00 | 92 | 1010.0 |
| 20260510035511 | 56 | 313 | 0.0 | 0.0 | 0.00 | 0.00 | 0.00 | 91 | 1010.1 |
| 20260510035046 | 56 | 313 | 0.0 | 0.0 | 0.00 | 0.00 | 0.00 | 91 | 1010.0 |
| 20260510034513 | 56 | 314 | 0.0 | 0.0 | 0.00 | 0.00 | 0.00 | 91 | 1010.0 |
| 20260510034049 | 57 | 314 | 0.0 | 0.0 | 0.00 | 0.00 | 0.00 | 91 | 1009.9 |
| 20260510033538 | 57 | 314 | 0.0 | 0.0 | 0.00 | 0.00 | 0.00 | 91 | 1009.9 |
| 20260510033014 | 57 | 314 | 0.0 | 0.0 | 0.00 | 0.00 | 0.00 | 91 | 1009.9 |
| 20260510032552 | 57 | 314 | 0.0 | 0.0 | 0.00 | 0.00 | 0.00 | 91 | 1010.0 |
| 20260510032036 | 57 | 314 | 0.0 | 0.0 | 0.00 | 0.00 | 0.00 | 91 | 1010.0 |
| 20260510031554 | 57 | 314 | 0.0 | 0.0 | 0.00 | 0.00 | 0.00 | 90 | 1010.0 |
| 20260510031034 | 57 | 314 | 0.0 | 0.0 | 0.00 | 0.00 | 0.00 | 90 | 1009.9 |
| 20260510030519 | 57 | 314 | 0.0 | 0.0 | 0.00 | 0.00 | 0.00 | 90 | 1009.9 |
| 20260510030108 | 57 | 314 | 0.0 | 0.0 | 0.00 | 0.00 | 0.00 | 90 | 1009.8 |
| 20260510025510 | 57 | 314 | 0.0 | 0.0 | 0.00 | 0.00 | 0.00 | 90 | 1009.8 |
| 20260510025033 | 57 | 314 | 0.0 | 0.0 | 0.00 | 0.00 | 0.00 | 90 | 1009.9 |
| 20260510024513 | 57 | 314 | 0.0 | 0.0 | 0.00 | 0.00 | 0.00 | 89 | 1009.8 |
| 20260510024040 | 57 | 313 | 0.0 | 0.0 | 0.00 | 0.00 | 0.00 | 89 | 1009.8 |
| 20260510023516 | 58 | 314 | 0.0 | 0.0 | 0.00 | 0.00 | 0.00 | 89 | 1009.8 |
| 20260510023055 | 57 | 314 | 0.0 | 0.0 | 0.00 | 0.00 | 0.00 | 89 | 1009.7 |
| 20260510022520 | 58 | 313 | 0.0 | 0.0 | 0.00 | 0.00 | 0.00 | 89 | 1009.8 |
| 20260510022053 | 58 | 314 | 0.0 | 0.0 | 0.00 | 0.00 | 0.00 | 89 | 1009.7 |
| 20260510021539 | 58 | 314 | 0.0 | 0.0 | 0.00 | 0.00 | 0.00 | 88 | 1009.7 |
| 20260510021020 | 58 | 314 | 0.0 | 0.0 | 0.00 | 0.00 | 0.00 | 88 | 1009.7 |
| 20260510020542 | 58 | 314 | 0.0 | 0.0 | 0.00 | 0.00 | 0.00 | 88 | 1009.7 |
| 20260510020027 | 59 | 314 | 0.0 | 0.0 | 0.00 | 0.00 | 0.00 | 88 | 1009.6 |
| 20260510015549 | 59 | 314 | 0.0 | 0.0 | 0.00 | 0.00 | 0.00 | 88 | 1009.6 |
| 20260510015012 | 59 | 314 | 0.0 | 0.0 | 0.00 | 0.00 | 0.00 | 88 | 1009.7 |
| 20260510014559 | 59 | 314 | 0.0 | 0.0 | 0.00 | 0.00 | 0.00 | 87 | 1009.6 |
| 20260510014012 | 60 | 314 | 0.0 | 0.0 | 0.00 | 0.00 | 0.00 | 87 | 1009.5 |
| 20260510013536 | 60 | 313 | 0.0 | 0.0 | 0.00 | 0.00 | 0.00 | 86 | 1009.4 |
| 20260510013017 | 60 | 314 | 0.0 | 0.0 | 0.00 | 0.00 | 0.00 | 86 | 1009.3 |
| 20260510012542 | 60 | 314 | 0.0 | 0.0 | 0.00 | 0.00 | 0.00 | 86 | 1009.2 |
| 20260510012100 | 60 | 313 | 0.0 | 0.0 | 0.00 | 0.00 | 0.00 | 86 | 1009.2 |
| 20260510012008 | 60 | 314 | 0.0 | 0.0 | 0.00 | 0.00 | 0.00 | 86 | 1009.2 |
| 20260510011542 | 61 | 314 | 0.0 | 0.0 | 0.00 | 0.00 | 0.00 | 85 | 1009.1 |
| 20260510011010 | 61 | 314 | 0.0 | 0.0 | 0.00 | 0.00 | 0.00 | 85 | 1008.9 |
| 20260510010544 | 61 | 320 | 0.0 | 0.0 | 0.00 | 0.00 | 0.00 | 85 | 1008.9 |
| 20260510010006 | 61 | 320 | 0.0 | 0.0 | 0.00 | 0.00 | 0.00 | 85 | 1008.8 |
| 20260510005528 | 61 | 320 | 0.0 | 0.0 | 0.00 | 0.00 | 0.00 | 84 | 1008.8 |
| 20260510005010 | 62 | 319 | 0.0 | 0.0 | 0.00 | 0.00 | 0.00 | 84 | 1008.7 |
| 20260510004544 | 62 | 320 | 0.0 | 0.0 | 0.00 | 0.00 | 0.00 | 84 | 1008.7 |
| 20260510004026 | 62 | 320 | 0.0 | 0.0 | 0.00 | 0.00 | 0.00 | 84 | 1008.7 |
| 20260510003508 | 62 | 320 | 0.0 | 0.0 | 0.00 | 0.00 | 0.00 | 83 | 1008.7 |
| 20260510003057 | 62 | 319 | 0.0 | 0.0 | 0.00 | 0.00 | 0.00 | 83 | 1008.5 |
| 20260510002525 | 63 | 320 | 0.0 | 0.0 | 0.00 | 0.00 | 0.00 | 82 | 1008.6 |
| 20260510002004 | 63 | 320 | 0.0 | 0.0 | 0.00 | 0.00 | 0.00 | 82 | 1008.5 |
| 20260510001545 | 63 | 319 | 0.0 | 0.0 | 0.00 | 0.00 | 0.00 | 82 | 1008.4 |
| 20260510001058 | 64 | 320 | 0.0 | 0.0 | 0.00 | 0.00 | 0.00 | 81 | 1008.5 |
| 20260510000525 | 64 | 320 | 0.0 | 0.0 | 0.00 | 0.00 | 0.00 | 80 | 1008.5 |
| 20260510000055 | 65 | 320 | 0.0 | 0.0 | 0.00 | 0.00 | 0.00 | 79 | 1008.4 |
| 20260509235534 | 65 | 320 | 0.0 | 0.0 | 0.00 | 0.00 | 0.00 | 79 | 1008.4 |
| 20260509235056 | 65 | 320 | 0.0 | 0.0 | 0.00 | 0.00 | 0.00 | 79 | 1008.4 |
| 20260509234520 | 66 | 319 | 0.0 | 0.0 | 0.00 | 0.00 | 0.00 | 79 | 1008.3 |
| 20260509234058 | 65 | 320 | 0.0 | 0.0 | 0.00 | 0.00 | 0.00 | 79 | 1008.3 |
| 20260509234002 | 65 | 319 | 0.0 | 0.0 | 0.00 | 0.00 | 0.00 | 78 | 1008.3 |
| 20260509233525 | 66 | 319 | 0.0 | 0.0 | 0.00 | 0.00 | 0.00 | 78 | 1008.3 |
| 20260509233044 | 66 | 320 | 0.0 | 0.0 | 0.00 | 0.00 | 0.00 | 77 | 1008.2 |
| 20260509232528 | 66 | 320 | 0.0 | 0.0 | 0.00 | 0.00 | 0.00 | 77 | 1008.1 |
| 20260509232049 | 67 | 320 | 0.0 | 0.0 | 0.00 | 0.00 | 0.00 | 77 | 1008.0 |
| 20260509231534 | 67 | 320 | 0.0 | 0.0 | 0.00 | 0.00 | 0.00 | 76 | 1008.1 |
| 20260509231049 | 67 | 320 | 0.0 | 0.0 | 0.00 | 0.00 | 0.00 | 76 | 1008.2 |
| 20260509230535 | 68 | 320 | 0.0 | 0.0 | 0.00 | 0.00 | 0.00 | 75 | 1008.1 |
| 20260509230059 | 68 | 320 | 0.0 | 0.0 | 0.00 | 0.00 | 0.00 | 75 | 1008.2 |
| 20260509225518 | 69 | 319 | 0.0 | 0.0 | 0.00 | 0.00 | 0.00 | 74 | 1008.0 |
| 20260509225054 | 69 | 319 | 0.0 | 0.0 | 0.00 | 0.00 | 0.00 | 74 | 1008.0 |
| 20260509224522 | 70 | 323 | 0.0 | 0.0 | 0.00 | 0.00 | 0.00 | 73 | 1007.9 |
| 20260509224056 | 70 | 323 | 0.0 | 0.0 | 0.00 | 0.00 | 0.00 | 72 | 1008.0 |
| 20260509223523 | 70 | 63 | 0.0 | 0.0 | 0.00 | 0.00 | 0.00 | 71 | 1008.0 |
| 20260509223111 | 71 | 60 | 0.0 | 0.0 | 0.00 | 0.00 | 0.00 | 70 | 1008.0 |
| 20260509223005 | 71 | 60 | 0.0 | 0.0 | 0.00 | 0.00 | 0.00 | 71 | 1008.1 |
| 20260509222530 | 71 | 54 | 0.0 | 0.0 | 0.00 | 0.00 | 0.00 | 70 | 1008.1 |
| 20260509222046 | 71 | 53 | 0.0 | 0.0 | 0.00 | 0.00 | 0.00 | 64 | 1008.1 |
| 20260509221524 | 71 | 54 | 0.0 | 0.0 | 0.00 | 0.00 | 0.00 | 64 | 1008.0 |
| 20260509221046 | 71 | 53 | 0.0 | 0.0 | 0.00 | 0.00 | 0.00 | 63 | 1008.0 |
| 20260509220512 | 72 | 53 | 0.0 | 0.0 | 0.00 | 0.00 | 0.00 | 64 | 1008.1 |
| 20260509220050 | 72 | 53 | 0.0 | 0.0 | 0.00 | 0.00 | 0.00 | 63 | 1008.0 |
| 20260509215517 | 72 | 36 | 0.0 | 0.0 | 0.00 | 0.00 | 0.00 | 63 | 1008.1 |
| 20260509215051 | 72 | 37 | 0.0 | 0.0 | 0.00 | 0.00 | 0.00 | 64 | 1008.0 |
| 20260509214512 | 72 | 35 | 0.0 | 0.0 | 0.00 | 0.00 | 0.00 | 64 | 1008.0 |
| 20260509214035 | 72 | 86 | 0.0 | 0.0 | 0.00 | 0.00 | 0.00 | 63 | 1008.0 |
| 20260509213516 | 72 | 101 | 0.0 | 0.0 | 0.00 | 0.00 | 0.00 | 63 | 1008.0 |
| 20260509213042 | 72 | 46 | 0.0 | 0.0 | 0.00 | 0.00 | 0.00 | 64 | 1008.0 |
| 20260509212524 | 72 | 72 | 0.0 | 0.0 | 0.00 | 0.00 | 0.00 | 64 | 1008.1 |
| 20260509212045 | 72 | 39 | 0.0 | 0.0 | 0.00 | 0.00 | 0.00 | 65 | 1008.1 |
| 20260509211508 | 72 | 46 | 0.0 | 0.9 | 0.00 | 0.00 | 0.00 | 64 | 1008.0 |
| 20260509211045 | 72 | 16 | 0.0 | 0.9 | 0.00 | 0.00 | 0.00 | 63 | 1008.0 |
| 20260509210506 | 72 | 5 | 0.0 | 0.0 | 0.00 | 0.00 | 0.00 | 65 | 1008.0 |
| 20260509210028 | 72 | 58 | 0.0 | 0.0 | 0.00 | 0.00 | 0.00 | 65 | 1008.0 |
| 20260509205507 | 71 | 310 | 0.0 | 1.7 | 0.00 | 0.00 | 0.00 | 66 | 1008.0 |
| 20260509205028 | 72 | 39 | 0.0 | 1.7 | 0.00 | 0.00 | 0.00 | 64 | 1008.0 |
| 20260509204545 | 72 | 117 | 0.0 | 1.7 | 0.00 | 0.00 | 0.00 | 65 | 1008.0 |
| 20260509204028 | 72 | 51 | 0.0 | 1.7 | 0.00 | 0.00 | 0.00 | 64 | 1008.0 |
| 20260509203552 | 72 | 311 | 0.0 | 3.5 | 0.00 | 0.00 | 0.00 | 66 | 1007.9 |
| 20260509203029 | 72 | 96 | 0.0 | 3.5 | 0.00 | 0.00 | 0.00 | 66 | 1007.9 |
| 20260509202553 | 72 | 43 | 0.0 | 0.0 | 0.00 | 0.00 | 0.00 | 67 | 1007.8 |
| 20260509202016 | 72 | 297 | 0.0 | 0.0 | 0.00 | 0.00 | 0.00 | 67 | 1007.9 |
| 20260509201536 | 72 | 299 | 0.0 | 3.5 | 0.00 | 0.00 | 0.00 | 68 | 1008.0 |
| 20260509201057 | 71 | 49 | 0.0 | 3.5 | 0.00 | 0.00 | 0.00 | 67 | 1008.1 |
| 20260509200538 | 71 | 8 | 0.0 | 0.0 | 0.00 | 0.00 | 0.00 | 68 | 1008.1 |
| 20260509200110 | 71 | 75 | 0.0 | 0.0 | 0.00 | 0.00 | 0.00 | 67 | 1008.2 |
| 20260509200002 | 71 | 82 | 0.0 | 0.0 | 0.00 | 0.00 | 0.00 | 67 | 1008.2 |
| 20260509195542 | 71 | 300 | 0.0 | 0.0 | 0.00 | 0.00 | 0.00 | 68 | 1008.3 |
| 20260509195003 | 70 | 28 | 0.0 | 0.0 | 0.00 | 0.00 | 0.00 | 69 | 1008.4 |
| 20260509194534 | 70 | 32 | 0.0 | 0.0 | 0.00 | 0.00 | 0.00 | 68 | 1008.5 |
| 20260509194059 | 70 | 32 | 0.0 | 0.0 | 0.00 | 0.00 | 0.00 | 67 | 1008.6 |
| 20260509194002 | 70 | 32 | 0.0 | 0.0 | 0.00 | 0.00 | 0.00 | 67 | 1008.7 |
| 20260509193523 | 70 | 63 | 0.0 | 0.0 | 0.00 | 0.00 | 0.00 | 67 | 1008.7 |
| 20260509193103 | 70 | 353 | 0.0 | 0.0 | 0.00 | 0.00 | 0.00 | 67 | 1008.9 |
| 20260509193002 | 70 | 353 | 0.0 | 0.0 | 0.00 | 0.00 | 0.00 | 67 | 1008.9 |
| 20260509192526 | 70 | 68 | 0.0 | 0.0 | 0.00 | 0.00 | 0.00 | 67 | 1008.9 |
| 20260509192048 | 71 | 62 | 0.0 | 0.0 | 0.00 | 0.00 | 0.00 | 66 | 1008.9 |
| 20260509191533 | 71 | 68 | 0.0 | 0.0 | 0.00 | 0.00 | 0.00 | 66 | 1008.9 |
| 20260509191012 | 71 | 78 | 0.0 | 0.0 | 0.00 | 0.00 | 0.00 | 65 | 1008.9 |
| 20260509190549 | 71 | 314 | 0.0 | 0.0 | 0.00 | 0.00 | 0.00 | 66 | 1008.7 |
| 20260509190027 | 71 | 54 | 0.0 | 0.0 | 0.00 | 0.01 | 0.00 | 66 | 1009.0 |
| 20260509185508 | 71 | 316 | 0.0 | 0.0 | 0.00 | 0.01 | 0.00 | 66 | 1009.1 |
| 20260509185030 | 71 | 70 | 0.0 | 0.0 | 0.00 | 0.01 | 0.00 | 68 | 1009.1 |
| 20260509184511 | 70 | 87 | 0.0 | 0.0 | 0.00 | 0.01 | 0.00 | 66 | 1009.3 |
| 20260509184033 | 70 | 105 | 0.0 | 0.0 | 0.00 | 0.01 | 0.00 | 67 | 1009.1 |
| 20260509183515 | 69 | 33 | 0.0 | 0.0 | 0.00 | 0.01 | 0.00 | 67 | 1009.2 |
| 20260509183100 | 69 | 118 | 0.0 | 0.0 | 0.00 | 0.01 | 0.00 | 68 | 1009.3 |
| 20260509182533 | 68 | 231 | 0.0 | 0.0 | 0.00 | 0.01 | 0.00 | 68 | 1009.3 |
| 20260509182051 | 68 | 56 | 0.0 | 0.0 | 0.00 | 0.01 | 0.00 | 70 | 1009.4 |
| 20260509181534 | 68 | 51 | 0.0 | 0.0 | 0.00 | 0.01 | 0.00 | 69 | 1009.6 |
| 20260509181052 | 68 | 51 | 0.0 | 0.0 | 0.00 | 0.01 | 0.00 | 69 | 1009.8 |
| 20260509180523 | 68 | 130 | 0.0 | 0.0 | 0.00 | 0.01 | 0.00 | 69 | 1009.9 |
| 20260509180041 | 68 | 122 | 0.0 | 0.0 | 0.00 | 0.01 | 0.00 | 69 | 1010.0 |
| 20260509175523 | 68 | 118 | 0.0 | 0.0 | 0.00 | 0.01 | 0.00 | 69 | 1010.0 |
| 20260509175053 | 68 | 118 | 0.0 | 0.0 | 0.00 | 0.01 | 0.00 | 70 | 1010.1 |
| 20260509174535 | 68 | 119 | 0.0 | 0.0 | 0.00 | 0.01 | 0.00 | 70 | 1010.1 |
| 20260509174054 | 68 | 247 | 0.0 | 0.0 | 0.00 | 0.01 | 0.00 | 69 | 1010.1 |
| 20260509173520 | 68 | 118 | 0.0 | 0.0 | 0.00 | 0.01 | 0.00 | 69 | 1010.0 |
| 20260509173104 | 67 | 49 | 0.0 | 0.0 | 0.00 | 0.01 | 0.00 | 69 | 1010.0 |
| 20260509173002 | 67 | 49 | 0.0 | 0.0 | 0.00 | 0.01 | 0.00 | 69 | 1010.0 |
| 20260509172527 | 67 | 27 | 0.0 | 0.0 | 0.00 | 0.01 | 0.00 | 69 | 1010.2 |
| 20260509172012 | 67 | 57 | 0.0 | 0.0 | 0.00 | 0.01 | 0.00 | 70 | 1010.2 |
| 20260509171542 | 67 | 31 | 0.0 | 0.0 | 0.00 | 0.01 | 0.00 | 69 | 1010.2 |
| 20260509171011 | 67 | 16 | 0.0 | 0.0 | 0.00 | 0.01 | 0.00 | 71 | 1010.1 |
| 20260509170552 | 67 | 214 | 0.0 | 0.0 | 0.00 | 0.01 | 0.00 | 70 | 1010.2 |
| 20260509170012 | 67 | 113 | 0.0 | 0.0 | 0.00 | 0.01 | 0.00 | 71 | 1010.2 |
| 20260509165534 | 67 | 338 | 0.0 | 0.0 | 0.00 | 0.01 | 0.00 | 70 | 1010.3 |
| 20260509165015 | 67 | 92 | 0.0 | 0.0 | 0.00 | 0.01 | 0.00 | 69 | 1010.3 |
| 20260509164539 | 67 | 39 | 0.0 | 0.0 | 0.00 | 0.01 | 0.00 | 69 | 1010.3 |
| 20260509164018 | 67 | 126 | 0.0 | 1.7 | 0.00 | 0.01 | 0.00 | 70 | 1010.2 |
| 20260509163543 | 67 | 126 | 0.0 | 1.7 | 0.00 | 0.01 | 0.00 | 69 | 1010.2 |
| 20260509163010 | 67 | 134 | 0.0 | 0.0 | 0.00 | 0.01 | 0.00 | 70 | 1010.3 |
| 20260509162546 | 66 | 103 | 0.0 | 0.0 | 0.00 | 0.01 | 0.00 | 69 | 1010.4 |
| 20260509162015 | 67 | 49 | 0.0 | 0.0 | 0.00 | 0.01 | 0.00 | 69 | 1010.3 |
| 20260509161543 | 67 | 128 | 0.0 | 0.0 | 0.00 | 0.01 | 0.00 | 68 | 1010.4 |
| 20260509161017 | 68 | 127 | 0.0 | 0.0 | 0.00 | 0.01 | 0.00 | 66 | 1010.4 |
| 20260509160539 | 69 | 311 | 0.0 | 0.0 | 0.00 | 0.01 | 0.00 | 66 | 1010.4 |
| 20260509160059 | 69 | 314 | 0.0 | 0.0 | 0.00 | 0.01 | 0.00 | 65 | 1010.5 |
| 20260509160008 | 69 | 295 | 0.0 | 0.0 | 0.00 | 0.01 | 0.00 | 65 | 1010.5 |
| 20260509155549 | 69 | 316 | 0.0 | 0.0 | 0.00 | 0.01 | 0.00 | 65 | 1010.6 |
| 20260509155011 | 68 | 336 | 0.0 | 0.9 | 0.00 | 0.01 | 0.00 | 65 | 1010.5 |
| 20260509154548 | 69 | 84 | 0.0 | 0.9 | 0.00 | 0.01 | 0.00 | 66 | 1010.5 |
| 20260509154007 | 68 | 68 | 0.0 | 1.7 | 0.00 | 0.01 | 0.00 | 68 | 1010.6 |
| 20260509153530 | 67 | 27 | 0.0 | 1.7 | 0.00 | 0.01 | 0.00 | 67 | 1010.6 |
| 20260509153027 | 67 | 71 | 0.0 | 0.0 | 0.00 | 0.01 | 0.00 | 68 | 1010.6 |
| 20260509152537 | 66 | 39 | 0.0 | 0.0 | 0.00 | 0.01 | 0.00 | 70 | 1010.7 |
| 20260509152056 | 65 | 27 | 0.0 | 0.0 | 0.00 | 0.01 | 0.00 | 69 | 1010.7 |
| 20260509151542 | 64 | 19 | 0.0 | 0.0 | 0.00 | 0.01 | 0.00 | 69 | 1010.8 |
| 20260509151057 | 63 | 6 | 0.0 | 0.9 | 0.00 | 0.01 | 0.00 | 70 | 1010.9 |
| 20260509151000 | 63 | 5 | 0.0 | 0.9 | 0.00 | 0.01 | 0.00 | 71 | 1010.9 |
| 20260509150545 | 63 | 22 | 0.0 | 0.9 | 0.00 | 0.01 | 0.00 | 69 | 1011.0 |
| 20260509150104 | 64 | 33 | 0.0 | 0.0 | 0.00 | 0.01 | 0.00 | 69 | 1011.0 |
| 20260509150004 | 64 | 19 | 0.0 | 0.0 | 0.00 | 0.01 | 0.00 | 70 | 1011.0 |
| 20260509145527 | 64 | 53 | 0.0 | 0.0 | 0.00 | 0.01 | 0.00 | 72 | 1011.0 |
| 20260509145003 | 63 | 52 | 0.0 | 0.0 | 0.00 | 0.01 | 0.00 | 72 | 1011.2 |
| 20260509144531 | 63 | 53 | 0.0 | 0.0 | 0.00 | 0.01 | 0.00 | 73 | 1011.2 |
| 20260509144045 | 62 | 307 | 0.0 | 0.0 | 0.00 | 0.01 | 0.00 | 74 | 1011.3 |
| 20260509143521 | 61 | 39 | 0.0 | 0.9 | 0.00 | 0.01 | 0.00 | 73 | 1011.4 |
| 20260509143055 | 61 | 45 | 0.0 | 0.9 | 0.00 | 0.01 | 0.00 | 73 | 1011.4 |
| 20260509142530 | 61 | 81 | 0.0 | 2.6 | 0.00 | 0.01 | 0.00 | 73 | 1011.3 |
| 20260509142049 | 61 | 315 | 0.0 | 2.6 | 0.00 | 0.01 | 0.00 | 72 | 1011.3 |
| 20260509141513 | 61 | 72 | 0.0 | 0.9 | 0.00 | 0.01 | 0.00 | 72 | 1011.2 |
| 20260509141054 | 61 | 332 | 0.0 | 0.9 | 0.00 | 0.01 | 0.00 | 71 | 1011.2 |
| 20260509140516 | 61 | 44 | 0.0 | 0.0 | 0.00 | 0.01 | 0.00 | 72 | 1011.1 |
| 20260509140105 | 61 | 30 | 0.0 | 0.0 | 0.00 | 0.01 | 0.00 | 72 | 1011.1 |
| 20260509135521 | 61 | 56 | 0.0 | 0.9 | 0.00 | 0.01 | 0.00 | 72 | 1011.2 |
| 20260509135057 | 61 | 46 | 0.0 | 0.0 | 0.00 | 0.01 | 0.00 | 72 | 1011.3 |
| 20260509134517 | 61 | 78 | 0.0 | 0.9 | 0.00 | 0.01 | 0.00 | 72 | 1011.2 |
| 20260509134038 | 61 | 68 | 0.0 | 0.9 | 0.00 | 0.01 | 0.00 | 72 | 1011.2 |
| 20260509133518 | 61 | 59 | 0.0 | 0.0 | 0.00 | 0.01 | 0.00 | 72 | 1011.2 |
| 20260509133043 | 61 | 307 | 0.0 | 0.0 | 0.00 | 0.01 | 0.00 | 72 | 1011.2 |
| 20260509132523 | 61 | 51 | 0.0 | 0.0 | 0.00 | 0.01 | 0.00 | 73 | 1011.3 |
| 20260509132045 | 61 | 32 | 0.0 | 0.0 | 0.00 | 0.01 | 0.00 | 72 | 1011.2 |
| 20260509131509 | 61 | 68 | 0.0 | 0.0 | 0.00 | 0.01 | 0.00 | 73 | 1011.2 |
| 20260509131047 | 61 | 62 | 0.0 | 3.5 | 0.00 | 0.01 | 0.00 | 72 | 1011.2 |
| 20260509130511 | 61 | 40 | 0.0 | 0.0 | 0.00 | 0.01 | 0.00 | 71 | 1011.2 |
| 20260509130047 | 61 | 50 | 0.0 | 0.0 | 0.00 | 0.01 | 0.00 | 70 | 1011.1 |
| 20260509125519 | 61 | 24 | 0.0 | 0.0 | 0.00 | 0.01 | 0.00 | 71 | 1011.2 |
| 20260509125046 | 61 | 319 | 0.0 | 0.0 | 0.00 | 0.01 | 0.00 | 71 | 1011.2 |
| 20260509124512 | 60 | 21 | 0.0 | 0.9 | 0.00 | 0.01 | 0.00 | 71 | 1011.2 |
| 20260509124045 | 60 | 59 | 0.0 | 0.9 | 0.00 | 0.01 | 0.00 | 71 | 1011.2 |
| 20260509123503 | 60 | 77 | 0.0 | 0.9 | 0.00 | 0.01 | 0.00 | 71 | 1011.1 |
| 20260509123027 | 59 | 6 | 0.0 | 1.7 | 0.00 | 0.01 | 0.00 | 71 | 1011.0 |
| 20260509122504 | 59 | 39 | 0.0 | 1.7 | 0.00 | 0.01 | 0.00 | 72 | 1011.1 |
| 20260509122026 | 59 | 68 | 0.0 | 0.0 | 0.00 | 0.01 | 0.00 | 72 | 1011.1 |
| 20260509121504 | 59 | 33 | 0.0 | 0.9 | 0.00 | 0.01 | 0.00 | 72 | 1011.1 |
| 20260509121027 | 59 | 60 | 0.0 | 0.9 | 0.00 | 0.01 | 0.00 | 72 | 1011.1 |
| 20260509120545 | 59 | 51 | 0.0 | 0.0 | 0.00 | 0.01 | 0.00 | 72 | 1011.1 |
| 20260509120036 | 59 | 64 | 0.0 | 0.9 | 0.00 | 0.01 | 0.00 | 72 | 1011.1 |
| 20260509115546 | 59 | 25 | 0.0 | 0.9 | 0.00 | 0.01 | 0.00 | 72 | 1011.1 |
| 20260509115031 | 59 | 39 | 0.0 | 0.0 | 0.00 | 0.01 | 0.00 | 72 | 1011.1 |
| 20260509114549 | 59 | 47 | 0.0 | 0.0 | 0.00 | 0.01 | 0.00 | 72 | 1011.0 |
| 20260509114031 | 58 | 64 | 0.0 | 0.0 | 0.00 | 0.01 | 0.00 | 72 | 1011.0 |
| 20260509113511 | 58 | 336 | 0.0 | 0.0 | 0.00 | 0.01 | 0.00 | 71 | 1011.0 |
| 20260509113050 | 58 | 55 | 0.0 | 0.9 | 0.00 | 0.01 | 0.00 | 71 | 1011.0 |
| 20260509112528 | 58 | 65 | 0.0 | 0.0 | 0.00 | 0.01 | 0.00 | 70 | 1010.9 |
| 20260509112012 | 58 | 20 | 0.0 | 0.0 | 0.00 | 0.01 | 0.00 | 69 | 1010.8 |
| 20260509111546 | 58 | 18 | 0.0 | 0.9 | 0.00 | 0.01 | 0.00 | 69 | 1010.8 |
| 20260509111031 | 58 | 51 | 0.0 | 0.9 | 0.00 | 0.01 | 0.00 | 69 | 1010.9 |
| 20260509110511 | 57 | 335 | 0.0 | 0.9 | 0.00 | 0.01 | 0.00 | 69 | 1010.9 |
| 20260509110051 | 57 | 49 | 0.0 | 0.0 | 0.00 | 0.01 | 0.00 | 69 | 1010.9 |
| 20260509105534 | 57 | 89 | 0.0 | 0.0 | 0.00 | 0.01 | 0.00 | 69 | 1010.9 |
| 20260509105014 | 57 | 77 | 0.0 | 0.0 | 0.00 | 0.01 | 0.00 | 69 | 1010.7 |
| 20260509104553 | 57 | 78 | 0.0 | 0.0 | 0.00 | 0.01 | 0.00 | 68 | 1010.7 |
| 20260509104039 | 57 | 83 | 0.0 | 0.0 | 0.00 | 0.01 | 0.00 | 68 | 1010.6 |
| 20260509103521 | 58 | 56 | 0.0 | 0.0 | 0.00 | 0.01 | 0.00 | 67 | 1010.5 |
| 20260509103059 | 58 | 56 | 0.0 | 0.0 | 0.00 | 0.01 | 0.00 | 67 | 1010.5 |
| 20260509102529 | 58 | 46 | 0.0 | 0.0 | 0.00 | 0.01 | 0.00 | 67 | 1010.5 |
| 20260509102047 | 58 | 45 | 0.0 | 0.0 | 0.00 | 0.01 | 0.00 | 67 | 1010.6 |
| 20260509101528 | 58 | 45 | 0.0 | 0.0 | 0.00 | 0.01 | 0.00 | 67 | 1010.6 |
| 20260509101052 | 58 | 45 | 0.0 | 0.0 | 0.00 | 0.01 | 0.00 | 67 | 1010.5 |
| 20260509100534 | 58 | 36 | 0.0 | 0.0 | 0.00 | 0.01 | 0.00 | 67 | 1010.4 |
| 20260509100059 | 58 | 91 | 0.0 | 0.9 | 0.00 | 0.01 | 0.00 | 67 | 1010.3 |
| 20260509095538 | 58 | 36 | 0.0 | 0.9 | 0.00 | 0.01 | 0.00 | 66 | 1010.4 |